[[{"header":{"parameterUnit":"m.s-1","parameterCategory":1,"la1":30.2991,"la2":30.254,"lo1":-89.0895,"lo2":-89.0444,"dy":0.0017,"dx":0.0017,"nx":28,"ny":28,"refTime":"2023-11-11T03:00:00:Z","depth":0,"parameterNumber":2,"parameterNumberName":"U-component_of_WINDS"},"data":[0,0,0,0,0,0,0,0,0,0,0,0,0,0,0,0,0,0,0,0,0,0,0,0,0,0,0,0,0,0,0,0,0,0,0,0,0,0,0,0,0,0,0,0,0,0,0,0,0,0,0,0,0,0,0,0,0,0,-2.2857,-2.2857,0,-2.2854,-2.2854,-2.2853,-2.2797,-2.2796,-2.2794,-2.2793,-2.2791,-2.2792,-2.2793,0,0,0,0,0,0,0,0,0,0,0,0,0,-2.2816,-2.2817,-2.2857,-2.2857,-2.2857,-2.2854,-2.2854,-2.2853,-2.2798,-2.2796,-2.2794,-2.2792,-2.279,-2.2792,-2.2793,0,0,0,0,0,0,0,0,0,0,0,0,0,-2.2826,-2.2818,-2.2857,-2.2829,-2.2826,-2.2854,-2.2854,-2.2853,-2.2798,-2.2796,-2.2794,-2.2792,-2.279,-2.2792,-2.2794,-2.2848,0,0,-2.2799,-2.28,0,0,0,0,0,0,0,0,-2.2825,-2.2827,-2.2833,-2.2831,-2.2828,-2.2824,-2.2838,-2.2852,-2.2798,-2.2809,-2.2793,-2.2791,-2.2804,-2.2804,-2.2808,-2.2848,-2.2848,-2.28,-2.2801,-2.2802,-2.2802,0,0,0,0,0,0,0,-2.2825,-2.2827,-2.2856,-2.2833,-2.283,-2.2816,-2.2815,-2.2841,-2.2818,-2.2808,-2.2804,-2.2804,-2.2802,-2.2807,-2.2808,-2.2848,-2.28,-2.2801,-2.2802,-2.2803,-2.2933,-2.2935,0,0,0,0,0,0,-2.2828,-2.2827,-2.2856,-2.2856,-2.2821,-2.2819,-2.2818,-2.2827,-2.2818,-2.2814,-2.2806,-2.2801,-2.2804,-2.2806,-2.2808,-2.2871,-2.2802,-2.2803,-2.2804,-2.2931,-2.2933,-2.2936,0,0,0,0,0,0,-2.2827,-2.2831,-2.2856,-2.284,-2.2842,-2.2822,-2.2833,-2.2828,-2.2833,-2.2816,-2.2812,-2.2815,-2.2803,-2.2805,-2.2839,-2.287,-2.2804,-2.2806,-2.2928,-2.2931,-2.2935,-2.2999,0,0,0,0,0,0,-2.2826,-2.2831,-2.2852,-2.2841,-2.2843,-2.2887,-2.2835,-2.283,-2.2836,-2.283,-2.2824,-2.282,-2.2801,-2.2836,-2.284,-2.2872,-2.2807,-2.2925,-2.2929,-2.2933,-2.2994,-2.3005,-2.3013,0,0,0,0,0,-2.2825,-2.2871,-2.2853,-2.2857,-2.2869,-2.2889,-2.2891,-2.2867,-2.2839,-2.286,-2.2849,-2.2821,-2.2866,-2.284,-2.2844,-2.2877,-2.2923,-2.2928,-2.2933,-2.299,-2.3003,-2.3013,0,0,0,0,0,0,-2.2886,-2.2869,-2.2849,-2.2892,-2.2893,-2.288,-2.2905,-2.2881,-2.289,-2.2884,-2.2855,-2.2854,-2.2892,-2.2887,-2.2859,-2.2929,-2.2889,-2.2896,-2.2931,-2.2943,-2.2952,-2.2953,-2.2809,0,0,0,0,0,-2.2905,-2.2923,-2.2906,-2.2946,-2.2947,-2.2926,-2.2934,-2.2916,-2.2915,-2.2915,-2.2907,-2.2907,-2.2922,-2.2932,-2.2944,-2.2993,-2.2991,-2.3017,-2.3027,-2.3035,-2.3041,-2.3067,-2.3079,-2.2953,-2.2953,-2.2953,0,0,-2.2944,-2.2936,-2.2949,-2.2958,-2.2956,-2.2976,-2.2927,-2.2949,-2.2964,-2.2919,-2.295,-2.2944,-2.2943,-2.2984,-2.3002,-2.2982,-2.3075,-2.3041,-2.3048,-2.305,-2.3073,-2.3085,-2.3096,-2.2956,-2.2956,-2.2955,0,0,-2.3024,-2.302,-2.3053,-2.3051,-2.3048,-2.3034,-2.3042,-2.3032,-2.3026,-2.3057,-2.3023,-2.304,-2.3065,-2.3065,-2.3069,-2.3148,-2.3123,-2.3153,-2.3204,-2.3229,-2.3239,-2.3247,-2.3276,-2.3287,-2.3159,-2.3159,-2.3159,0,-2.3073,-2.31,-2.3073,-2.3097,-2.3102,-2.3061,-2.3094,-2.3094,-2.3096,-2.3101,-2.3078,-2.3108,-2.3104,-2.3145,-2.3165,-2.3169,-2.3177,-2.3154,-2.3239,-2.3248,-2.3256,-2.3283,-2.3294,-2.3163,-2.3162,-2.3162,-2.3162,0,-2.316,-2.318,-2.3207,-2.3209,-2.3216,-2.3245,-2.3222,-2.3233,-2.3214,-2.3202,-2.3234,-2.3227,-2.3238,-2.3246,-2.3227,-2.3284,-2.3272,-2.3244,-2.3204,-2.3272,-2.3297,-2.3307,-2.3168,-2.3167,-2.3166,-2.3165,0,0,-2.3282,-2.3266,-2.3277,-2.3277,-2.327,-2.3285,-2.3312,-2.3321,-2.3331,-2.3333,-2.3355,-2.3377,-2.3351,-2.3355,-2.3336,-2.3358,-2.3422,-2.3328,-2.3328,-2.3347,-2.3485,-2.3507,-2.3519,-2.3405,-2.3406,-2.3408,-2.3485,0,-2.336,-2.3404,-2.338,-2.3428,-2.3446,-2.3406,-2.3429,-2.3428,-2.3417,-2.3431,-2.3418,-2.3435,-2.3399,-2.3402,-2.3421,-2.341,-2.345,-2.3404,-2.3426,-2.3427,-2.3429,-2.3532,-2.3555,-2.3629,-2.3495,-2.3497,-2.3498,0,-2.3458,-2.3463,-2.3513,-2.3502,-2.3509,-2.353,-2.3536,-2.3549,-2.3547,-2.3537,-2.3541,-2.3516,-2.3542,-2.3501,-2.3536,-2.3505,-2.3512,-2.3508,-2.351,-2.3513,-2.3468,-2.3538,-2.3652,-2.3663,-2.3513,-2.3512,-2.3511,0,-2.3542,-2.3562,-2.3594,-2.3595,-2.3583,-2.3599,-2.3595,-2.359,-2.3597,-2.3602,-2.3606,-2.3615,-2.362,-2.3627,-2.3605,-2.3577,-2.3644,-2.36,-2.3637,-2.3638,-2.3654,-2.3654,-2.3772,-2.3657,-2.3657,-2.3656,-2.3656,0,-2.3633,-2.3666,-2.3632,-2.3652,-2.3687,-2.3657,-2.3693,-2.3684,-2.368,-2.3698,-2.3664,-2.3682,-2.3651,-2.3666,-2.3649,-2.3681,-2.3683,-2.3677,-2.3672,-2.368,-2.3682,-2.3686,-2.3681,-2.3659,-2.3659,-2.3658,-2.3658,0,-2.3734,-2.3713,-2.3745,-2.3731,-2.3728,-2.3754,-2.3742,-2.376,-2.3745,-2.3769,-2.3772,-2.3751,-2.3766,-2.3745,-2.3758,-2.3747,-2.3791,-2.3778,-2.3792,-2.3789,-2.3827,-2.3824,-2.3953,-2.3968,-2.3843,-2.3844,-2.3845,0,-2.3795,-2.3818,-2.3806,-2.3815,-2.3812,-2.3827,-2.3834,-2.3805,-2.3814,-2.3812,-2.383,-2.3842,-2.3851,-2.3877,-2.3863,-2.3873,-2.3861,-2.3905,-2.3862,-2.387,-2.3863,-2.3862,-2.3865,-2.3915,-2.3916,-2.3917,-2.3918,0,-2.3904,-2.3892,-2.3902,-2.3909,-2.3917,-2.3921,-2.3923,-2.3932,-2.3902,-2.3913,-2.3928,-2.3934,-2.3947,-2.396,-2.3966,-2.3962,-2.3936,-2.3931,-2.3941,-2.395,-2.3958,-2.3955,-2.3817,-2.3929,-2.3928,-2.3927,-2.3927,-2.3926,-2.3987,-2.4006,-2.4,-2.4013,-2.401,-2.4012,-2.4028,-2.4016,-2.4027,-2.4035,-2.4017,-2.4037,-2.4033,-2.4038,-2.4036,-2.4051,-2.4032,-2.4045,-2.4049,-2.4053,-2.4059,-2.3954,-2.4052,-2.4052,-2.4051,-2.4051,-2.4051,0,-2.4096,-2.4089,-2.4101,-2.4103,-2.4113,-2.4086,-2.4085,-2.4096,-2.4113,-2.4111,-2.4119,-2.4136,-2.4148,-2.4134,-2.4144,-2.4158,-2.4147,-2.4162,-2.4161,-2.4161,-2.4075,-2.4067,-2.4171,-2.4171,-2.4171,-2.4171,-2.4171,-2.4171,-2.4153,-2.4184,-2.4171,-2.4201,-2.4194,-2.4212,-2.4214,-2.4216,-2.4214,-2.4234,-2.4243,-2.4233,-2.4227,-2.4235,-2.4245,-2.4241,-2.4246,-2.4266,-2.4258,-2.4179,-2.4167,-2.4156,-2.4148,-2.4267,-2.4268,-2.4342,-2.4343,-2.4344]},{"header":{"parameterUnit":"m.s-1","parameterCategory":1,"la1":30.2991,"la2":30.254,"lo1":-89.0895,"lo2":-89.0444,"dy":0.0017,"dx":0.0017,"nx":28,"ny":28,"refTime":"2023-11-11T03:00:00:Z","depth":0,"parameterNumber":3,"parameterNumberName":"V-component_of_WINDS"},"data":[0,0,0,0,0,0,0,0,0,0,0,0,0,0,0,0,0,0,0,0,0,0,0,0,0,0,0,0,0,0,0,0,0,0,0,0,0,0,0,0,0,0,0,0,0,0,0,0,0,0,0,0,0,0,0,0,0,0,-5.1193,-5.1194,0,-5.1267,-5.1268,-5.1268,-5.1221,-5.1219,-5.1217,-5.1215,-5.1285,-5.1288,-5.1292,0,0,0,0,0,0,0,0,0,0,0,0,0,-5.1007,-5.1011,-5.1193,-5.1194,-5.1195,-5.1267,-5.1268,-5.1269,-5.1222,-5.1219,-5.1216,-5.1214,-5.1283,-5.1288,-5.1293,0,0,0,0,0,0,0,0,0,0,0,0,0,-5.1085,-5.1012,-5.1193,-5.1181,-5.118,-5.1266,-5.1268,-5.1269,-5.1222,-5.1219,-5.1216,-5.1213,-5.1282,-5.1288,-5.1293,-5.1395,0,0,-5.1311,-5.1314,0,0,0,0,0,0,0,0,-5.1081,-5.1092,-5.1181,-5.1182,-5.1181,-5.1232,-5.1228,-5.1311,-5.1223,-5.1206,-5.1215,-5.1211,-5.1269,-5.1276,-5.1297,-5.1398,-5.1401,-5.1312,-5.1315,-5.1318,-5.1319,0,0,0,0,0,0,0,-5.1075,-5.1088,-5.1222,-5.1183,-5.1183,-5.1169,-5.1177,-5.1243,-5.1255,-5.1207,-5.1204,-5.1214,-5.1269,-5.1291,-5.1298,-5.1402,-5.1311,-5.1317,-5.132,-5.1322,-5.1589,-5.1592,0,0,0,0,0,0,-5.1072,-5.1084,-5.122,-5.1224,-5.1122,-5.1175,-5.1184,-5.1219,-5.1254,-5.1256,-5.1216,-5.1211,-5.1283,-5.1291,-5.13,-5.1421,-5.1318,-5.1323,-5.1326,-5.1586,-5.159,-5.1594,0,0,0,0,0,0,-5.1068,-5.1084,-5.1217,-5.1154,-5.1169,-5.1182,-5.1222,-5.1222,-5.1245,-5.1261,-5.1262,-5.1238,-5.1281,-5.1292,-5.1372,-5.1423,-5.1326,-5.1331,-5.1581,-5.1587,-5.1592,-5.1664,0,0,0,0,0,0,-5.1063,-5.1083,-5.1123,-5.1155,-5.1173,-5.1289,-5.1225,-5.1226,-5.1255,-5.1249,-5.1281,-5.1284,-5.1279,-5.1363,-5.1378,-5.1429,-5.1336,-5.1577,-5.1584,-5.159,-5.1657,-5.1671,-5.1683,0,0,0,0,0,-5.1056,-5.1139,-5.1125,-5.1142,-5.1224,-5.1292,-5.1302,-5.1297,-5.126,-5.1299,-5.131,-5.1283,-5.1415,-5.1372,-5.1387,-5.1442,-5.1573,-5.1582,-5.159,-5.1651,-5.1668,-5.1683,0,0,0,0,0,0,-5.1111,-5.1143,-5.1128,-5.1224,-5.1256,-5.1284,-5.1334,-5.1315,-5.1357,-5.1349,-5.1339,-5.1346,-5.143,-5.1443,-5.1395,-5.1541,-5.1488,-5.15,-5.153,-5.1546,-5.1559,-5.1554,-5.134,0,0,0,0,0,-5.1135,-5.119,-5.1214,-5.1296,-5.1313,-5.1321,-5.1351,-5.1344,-5.1376,-5.1388,-5.1404,-5.1435,-5.1483,-5.1515,-5.1561,-5.1659,-5.1664,-5.1703,-5.1716,-5.1727,-5.1737,-5.179,-5.1807,-5.162,-5.162,-5.162,0,0,-5.1183,-5.1208,-5.1243,-5.1308,-5.1332,-5.1387,-5.1332,-5.1393,-5.1434,-5.1397,-5.1474,-5.1487,-5.152,-5.1609,-5.1649,-5.1623,-5.179,-5.1737,-5.1746,-5.175,-5.18,-5.1818,-5.1833,-5.1626,-5.1625,-5.1624,0,0,-5.1301,-5.1325,-5.1397,-5.1422,-5.146,-5.1464,-5.1481,-5.1513,-5.152,-5.1598,-5.1571,-5.1618,-5.1702,-5.1727,-5.175,-5.1877,-5.1854,-5.1892,-5.196,-5.2012,-5.2026,-5.2039,-5.2085,-5.2101,-5.1902,-5.1902,-5.1902,0,-5.1356,-5.1441,-5.1435,-5.1499,-5.1528,-5.1499,-5.157,-5.1594,-5.1644,-5.1664,-5.1634,-5.1739,-5.1759,-5.1854,-5.1885,-5.1905,-5.1923,-5.1888,-5.2025,-5.2038,-5.205,-5.2093,-5.211,-5.1907,-5.1906,-5.1906,-5.1905,0,-5.1507,-5.1566,-5.1619,-5.167,-5.1705,-5.1772,-5.1775,-5.181,-5.1801,-5.1808,-5.1886,-5.191,-5.1959,-5.1981,-5.1971,-5.2074,-5.2057,-5.2027,-5.1973,-5.2072,-5.2113,-5.2129,-5.1913,-5.1911,-5.191,-5.1909,0,0,-5.1661,-5.1709,-5.1728,-5.1751,-5.1791,-5.1835,-5.19,-5.1951,-5.1981,-5.2016,-5.207,-5.2142,-5.2114,-5.2141,-5.2133,-5.2178,-5.2277,-5.2142,-5.2142,-5.2166,-5.2392,-5.2415,-5.2434,-5.2262,-5.2265,-5.2267,-5.2389,0,-5.178,-5.1897,-5.1894,-5.2001,-5.2055,-5.2028,-5.2085,-5.2114,-5.2123,-5.2168,-5.2176,-5.2227,-5.2187,-5.2203,-5.2246,-5.2256,-5.2322,-5.2247,-5.231,-5.2313,-5.2304,-5.2455,-5.248,-5.2594,-5.2405,-5.2407,-5.2409,0,-5.1936,-5.1979,-5.2093,-5.2124,-5.2147,-5.2198,-5.2244,-5.2288,-5.232,-5.2323,-5.2354,-5.2339,-5.2403,-5.2348,-5.2436,-5.2385,-5.241,-5.2419,-5.2423,-5.2429,-5.2367,-5.2465,-5.263,-5.2647,-5.2434,-5.2432,-5.243,0,-5.2037,-5.2123,-5.2202,-5.2222,-5.2261,-5.2298,-5.2315,-5.2345,-5.2375,-5.2415,-5.2434,-5.248,-5.2505,-5.254,-5.2537,-5.2497,-5.2626,-5.2571,-5.2629,-5.263,-5.2658,-5.2656,-5.2829,-5.2674,-5.2674,-5.2674,-5.2673,0,-5.2172,-5.2242,-5.2248,-5.2297,-5.2375,-5.237,-5.2446,-5.2459,-5.2486,-5.2535,-5.2513,-5.256,-5.2553,-5.26,-5.2598,-5.2671,-5.2682,-5.2685,-5.2683,-5.2687,-5.2687,-5.2704,-5.2696,-5.2678,-5.2677,-5.2676,-5.2675,0,-5.2298,-5.2305,-5.239,-5.242,-5.2429,-5.2485,-5.251,-5.2556,-5.2562,-5.2625,-5.2639,-5.2649,-5.2703,-5.2704,-5.2764,-5.2762,-5.2852,-5.2841,-5.2842,-5.284,-5.2898,-5.2893,-5.3089,-5.3114,-5.2942,-5.2944,-5.2945,0,-5.2384,-5.2438,-5.2475,-5.2507,-5.2528,-5.258,-5.2612,-5.2608,-5.2642,-5.2683,-5.2723,-5.2775,-5.2816,-5.2902,-5.2913,-5.2959,-5.2949,-5.3015,-5.2956,-5.2958,-5.295,-5.2947,-5.2953,-5.3026,-5.3028,-5.303,-5.3031,0,-5.2535,-5.2536,-5.2584,-5.2633,-5.2672,-5.271,-5.2745,-5.2772,-5.2772,-5.281,-5.2866,-5.2898,-5.2961,-5.3012,-5.3056,-5.3072,-5.3051,-5.3049,-5.3065,-5.307,-5.3068,-5.307,-5.2873,-5.3045,-5.3044,-5.3043,-5.3042,-5.3041,-5.2643,-5.269,-5.2724,-5.2778,-5.2804,-5.2838,-5.2882,-5.2895,-5.2942,-5.2994,-5.2988,-5.305,-5.3079,-5.3137,-5.3157,-5.3204,-5.3181,-5.3204,-5.321,-5.3215,-5.3222,-5.3061,-5.3211,-5.3211,-5.3211,-5.321,-5.321,0,-5.2794,-5.2814,-5.2864,-5.2915,-5.2957,-5.2936,-5.2973,-5.3009,-5.3064,-5.3095,-5.3136,-5.32,-5.3249,-5.3265,-5.3312,-5.3346,-5.3338,-5.3359,-5.3356,-5.336,-5.324,-5.3221,-5.3365,-5.3365,-5.3365,-5.3365,-5.3365,-5.3365,-5.2877,-5.2955,-5.296,-5.3051,-5.307,-5.3132,-5.3155,-5.3185,-5.321,-5.3282,-5.3324,-5.3335,-5.3359,-5.3408,-5.3452,-5.3455,-5.3473,-5.3498,-5.3497,-5.3384,-5.3369,-5.3354,-5.3337,-5.3502,-5.3502,-5.3614,-5.3615,-5.3616]}]]